Location: ??
(35.1715°N, 139.6450°E)
Time: 20:55:30
(UTC+00:00)

SL-16 R/B - Pass Details

Date: 05 August 2024
Orbit: 985 x 1006 km, 99.7° (Epoch: 18 September)

Event Time Altitude Azimuth Distance (km) Brightness Sun altitude
Exits shadow 17:30:50 27° 159° (SSE) 1,787 3.6 -25.3°
Maximum altitude 17:34:23 82° 74° (ENE) 999 2.5 -24.8°
Drops below altitude 10° 17:40:34 10° 348° (NNW) 2,749 5.2 -23.9°
Sets 17:43:02 0° 348° (NNW) 3,702 6.0 -23.5°
